Regional Weather Roundup
Issued by NWS State College, PA

Home | Current Version | Previous Version | Text Only | Print | Product List | Glossary On
Versions: 1 2 3 4 5 6 7 8 9 10 11 12 13 14 15 16 17 18 19 20 21 22 23 24 25 26 27 28 29 30 31 32 33 34 35 36 37 38 39 40 41 42 43 44 45 46 47 48 49 50
000
ASUS41 KCTP 221103
RWRCTP

REGIONAL WEATHER ROUNDUP
NATIONAL WEATHER SERVICE STATE COLLEGE PA
700 AM EDT MON SEP 22 2014

Note: "fair" indicates few or no clouds below 12,000 feet with no
significant weather and/or obstructions to visibility.

* = STATION THAT DOES NOT REPORT PRECIPITATION /E.G. RAIN...SNOW...ETC/
    THUNDER OR FOG.

PAZ002>004-007>009-013>016-020>023-029>032-221200-
WESTERN PENNSYLVANIA

CITY           SKY/WX    TMP DP  RH WIND       PRES   REMARKS
ERIE           CLOUDY    54  41  61 N12G24    30.02R
MEADVILLE      CLOUDY    48  45  89 NW7       30.02R
FRANKLIN*      CLOUDY    46  43  87 NW10G17   30.02R
NEW CASTLE     NOT AVBL
BEAVER COUNTY  CLOUDY    50  45  81 W5        30.03
BUTLER*        CLOUDY    50  45  81 W7        30.04R
PITTSBURGH INT CLOUDY    53  43  68 NW12      30.03R
PITTSBURGH     CLOUDY    53  43  68 NW7G17    30.02R
INDIANA*       CLOUDY    50  48  93 NW13      30.03R FOG
LATROBE        MOCLDY    52  48  87 W9        30.03R
WASHINGTON CO* CLOUDY    50  46  87 NW10G16   30.05R
$$

PAZ004>006-010>012-017>019-024>028-033>037-041-042-045-046-049>053-221200-
CENTRAL PENNSYLVANIA

CITY           SKY/WX    TMP DP  RH WIND       PRES   REMARKS
BRADFORD       CLOUDY    46  43  89 NW13G21   29.94R FOG
DUBOIS         CLOUDY    48  43  82 NW15G23   29.96R
CLEARFIELD     LGT RAIN  49  45  86 NW9G21    29.96R
JOHNSTOWN      CLOUDY    48  45  89 W20       29.97R
ALTOONA        CLOUDY    51  48  89 NW8       29.97R
STATE COLLEGE  MOCLDY    52  43  71 NW16      29.93R
WILLIAMSPORT   CLOUDY    56  49  77 W9        29.87R
SELINSGROVE    MOCLDY    58  47  66 W8        29.89R
FT INDIANTOWN  CLEAR     60  50  69 W10       29.87R
CAPITAL CITY   PTCLDY    60  47  61 W8G20     29.89R
HARRISBURG     PTCLDY    61  49  64 NW20G29   29.87R
YORK           CLEAR     57  48  72 W6        29.90R
$$

PAZ038>040-043-044-047-048-054-055-060>062-067>071-221200-
EASTERN PENNSYLVANIA

CITY           SKY/WX    TMP DP  RH WIND       PRES   REMARKS
SCRANTON       CLOUDY    57  52  83 SW6       29.83R
MOUNT POCONO   MOCLDY    53  32  44 W15G24    29.81R
ALLENTOWN      CLEAR     60  48  64 W8        29.82R
QUAKERTOWN*    SUNNY     59  50  72 W6        29.83R
READING        PTCLDY    59  49  69 W6        29.84R
LANCASTER      CLEAR     56  48  74 W8        29.87R
COATESVILLE    SUNNY     55  50  82 NW9       29.87R
POTTSTOWN      CLEAR     59  49  69 NW5       29.85R
BLUE BELL      CLEAR     61  50  67 W6        29.82R
DOYLESTOWN     CLEAR     59  50  72 W8        29.81R
WILLOW GROVE   NOT AVBL
NORTH PHILA    CLEAR     63  48  58 W10       29.83R
PHILADELPHIA   PTCLDY    63  50  62 W9        29.84R
$$


USA.gov is the U.S. government's official web portal to all federal, state and local government web resources and services.